This is the latest recevied weather packets stored in our database for station/object KB1JLI. If no packets are shown the sender has not sent any weather packets the latest 10 day(s).
| Time | Temp. | Humidity | Pressure | Rain* | Wind** | Luminosity | Snow |
|---|---|---|---|---|---|---|---|
| 1777124271 | 8.33° C | 46% | 1019.1 hPa | 0 mm | - | 497 W/m² | - |
| 1777123969 | 8.89° C | 45% | 1019 hPa | 0 mm | - | 473 W/m² | - |
| 1777123664 | 8.89° C | 45% | 1019.2 hPa | 0 mm | - | 373 W/m² | - |
| 1777123361 | 8.33° C | 45% | 1019.4 hPa | 0 mm | - | 410 W/m² | - |
| 1777123057 | 8.33° C | 45% | 1019.5 hPa | 0 mm | - | 447 W/m² | - |
| 1777122753 | 8.33° C | 49% | 1019.6 hPa | 0 mm | - | 319 W/m² | - |
| 1777122449 | 7.78° C | 50% | 1019.5 hPa | 0 mm | - | 295 W/m² | - |
| 1777122146 | 7.78° C | 50% | 1019.4 hPa | 0 mm | - | 340 W/m² | - |
| 1777121841 | 7.78° C | 48% | 1019.5 hPa | 0 mm | - | 394 W/m² | - |
| 1777121539 | 7.78° C | 50% | 1019.4 hPa | 0 mm | - | 384 W/m² | - |
| 1777121235 | 7.78° C | 52% | 1019.5 hPa | 0 mm | - | 285 W/m² | - |
| 1777120932 | 8.33° C | 52% | 1019.3 hPa | 0 mm | - | 302 W/m² | - |
| 1777120628 | 7.78° C | 49% | 1019.3 hPa | 0 mm | - | 359 W/m² | - |
| 1777120323 | 7.78° C | 53% | 1019.4 hPa | 0 mm | - | 281 W/m² | - |
| 1777120018 | 7.22° C | 55% | 1019.6 hPa | 0 mm | - | 292 W/m² | - |
| 1777119715 | 7.78° C | 52% | 1019.5 hPa | 0 mm | - | 305 W/m² | - |
| 1777119410 | 7.22° C | 54% | 1019.7 hPa | 0 mm | - | 286 W/m² | - |
| 1777119105 | 6.67° C | 55% | 1019.7 hPa | 0 mm | - | 265 W/m² | - |
| 1777118801 | 6.67° C | 57% | 1019.5 hPa | 0 mm | - | 231 W/m² | - |
| 1777118498 | 6.11° C | 58% | 1019.5 hPa | 0 mm | - | 224 W/m² | - |
| 1777118198 | 5.56° C | 75% | 1019.5 hPa | 0 mm | - | 164 W/m² | - |
| 1777117895 | 4.44° C | 83% | 1019.6 hPa | 0 mm | - | 131 W/m² | - |
| 1777117592 | 3.89° C | 88% | 1019.3 hPa | 0 mm | - | 112 W/m² | - |
| 1777117290 | 3.33° C | 93% | 1019.2 hPa | 0 mm | - | 96 W/m² | - |
| 1777116990 | 2.78° C | 95% | 1019.3 hPa | 0 mm | - | 87 W/m² | - |
* Rain latest hour (hover to see other rain measurements)
** Current wind speed in m/s (hover to see current wind gust speed)